{"data":{"norad_id":40046,"epoch":"2026-05-25T00:04:13.708416Z","epoch_age_seconds":78753,"freshness":"FRESH","line1":"1 40046U 14033AN  26145.00293644  .00006032  00000+0  49174-3 0  9999","line2":"2 40046  97.7184 311.9465 0039088  86.2061 274.3629 14.99241136643288","mean_motion":14.99241136,"eccentricity":0.0039088,"inclination_deg":97.7184,"raan_deg":311.9465,"arg_perigee_deg":86.2061,"mean_anomaly_deg":274.3629,"bstar":0.00049174,"rev_number":64328,"period_min":96.048591879085,"perigee_km":542.08379901587,"apogee_km":596.39561114551,"semimajor_km":6947.3767050807,"source":"CELESTRAK","updated_at":"2026-05-25T13:38:25.523706Z"}}